Location: Glens Falls
(43.3090°N, 73.6440°W)
Time: 23:50:59
(UTC-04:00)

Aureole 3 - Pass Details

Date: 24 February 2018
Orbit: 381 x 1244 km, 82.5° (Epoch: 21 June)

Event Time Altitude Azimuth Distance (km) Brightness Sun altitude
Rises 18:20:51 0° 191° (S) 3,573 7.7 -8.7°
Reaches altitude 10° 18:23:36 10° 193° (SSW) 2,492 6.9 -9.2°
Maximum altitude 18:29:09 74° 278° (W) 746 4.1 -10.2°
Drops below altitude 10° 18:33:30 10° 4° (N) 1,957 6.1 -11.0°
Sets 18:35:21 0° 6° (N) 2,707 6.8 -11.3°
